Location: Praha
(50.0830°N, 14.4670°E)
Time: 11:05:45
(UTC+02:00)

ISS - Pass Details

Date: 19 May 2019
Orbit: 407 x 410 km, 51.6° (Epoch: 21 May)

Event Time Altitude Azimuth Distance (km) Brightness Sun altitude
Rises 00:28:28 0° 267° (W) 2,333 0.1 -20.0°
Reaches altitude 10° 00:30:34 10° 270° (W) 1,473 -0.9 -20.0°
Maximum altitude 00:33:51 67° 354° (N) 448 -3.5 -20.1°
Drops below altitude 10° 00:37:09 10° 78° (ENE) 1,476 -0.9 -20.1°
Sets 00:39:15 0° 81° (E) 2,338 0.1 -20.1°
